| time (UTC) | temp F | wind direction | speed knots | gust knots | rain 1hr in | rain 24hr in | rain mn in | humidity % | barometer mb |
| 20260507191704 | 72 | 110 | 4.3 | 0.0 | 0.00 | 0.00 | 0.00 | 50 | 1009.0 |
| 20260507190703 | 72 | 110 | 4.3 | 0.0 | 0.00 | 0.00 | 0.00 | 50 | 1009.0 |
| 20260507185703 | 71 | 110 | 4.3 | 0.0 | 0.00 | 0.00 | 0.00 | 50 | 1009.0 |
| 20260507184701 | 71 | 110 | 4.3 | 0.0 | 0.00 | 0.00 | 0.00 | 50 | 1009.0 |
| 20260507183700 | 71 | 110 | 4.3 | 0.0 | 0.00 | 0.00 | 0.00 | 50 | 1010.0 |
| 20260507182700 | 71 | 110 | 4.3 | 0.0 | 0.00 | 0.00 | 0.00 | 50 | 1010.0 |
| 20260507181659 | 71 | 110 | 4.3 | 0.0 | 0.00 | 0.00 | 0.00 | 50 | 1010.0 |
| 20260507180655 | 71 | 110 | 4.3 | 0.0 | 0.00 | 0.00 | 0.00 | 50 | 1010.0 |
| 20260507175654 | 71 | 0 | 4.3 | 0.0 | 0.00 | 0.00 | 0.00 | 50 | 1010.0 |
| 20260507174652 | 71 | 0 | 4.3 | 0.0 | 0.00 | 0.00 | 0.00 | 50 | 1010.0 |
| 20260507173650 | 71 | 0 | 4.3 | 0.0 | 0.00 | 0.00 | 0.00 | 50 | 1011.0 |
| 20260507172649 | 71 | 0 | 4.3 | 0.0 | 0.00 | 0.00 | 0.00 | 50 | 1012.0 |
| 20260507171648 | 71 | 0 | 4.3 | 0.0 | 0.00 | 0.00 | 0.00 | 51 | 1012.0 |
| 20260507170646 | 71 | 0 | 4.3 | 0.0 | 0.00 | 0.00 | 0.00 | 52 | 1012.0 |
| 20260507165641 | 70 | 0 | 4.3 | 0.0 | 0.00 | 0.00 | 0.00 | 53 | 1012.0 |
| 20260507164640 | 70 | 0 | 4.3 | 0.0 | 0.00 | 0.00 | 0.00 | 53 | 1012.0 |
| 20260507163640 | 70 | 0 | 4.3 | 0.0 | 0.00 | 0.00 | 0.00 | 54 | 1013.0 |
| 20260507162638 | 70 | 0 | 4.3 | 0.0 | 0.00 | 0.00 | 0.00 | 56 | 1014.0 |
| 20260507161636 | 69 | 0 | 4.3 | 0.0 | 0.00 | 0.00 | 0.00 | 57 | 1014.0 |
| 20260507160636 | 69 | 0 | 4.3 | 0.0 | 0.00 | 0.00 | 0.00 | 58 | 1014.0 |
| 20260507155635 | 69 | 0 | 4.3 | 0.0 | 0.00 | 0.00 | 0.00 | 59 | 1014.0 |
| 20260507154635 | 69 | 0 | 4.3 | 0.0 | 0.00 | 0.00 | 0.00 | 58 | 1014.0 |
| 20260507153634 | 68 | 0 | 4.3 | 0.0 | 0.00 | 0.00 | 0.00 | 66 | 1014.0 |
| 20260507152634 | 68 | 0 | 4.3 | 0.0 | 0.00 | 0.00 | 0.00 | 69 | 1015.0 |
| 20260507151633 | 68 | 0 | 4.3 | 0.0 | 0.00 | 0.00 | 0.00 | 70 | 1015.0 |
| 20260507150632 | 68 | 0 | 4.3 | 0.0 | 0.00 | 0.00 | 0.00 | 70 | 1015.0 |
| 20260507145630 | 68 | 0 | 0.0 | 0.0 | 0.00 | 0.00 | 0.00 | 71 | 1015.0 |
| 20260507144629 | 68 | 0 | 0.0 | 0.0 | 0.00 | 0.00 | 0.00 | 72 | 1015.0 |
| 20260507143627 | 63 | 0 | 0.0 | 0.0 | 0.00 | 0.00 | 0.00 | 75 | 1015.0 |
| 20260507142627 | 63 | 0 | 0.0 | 0.0 | 0.00 | 0.00 | 0.00 | 75 | 1016.0 |
| 20260507141626 | 63 | 0 | 0.0 | 0.0 | 0.00 | 0.00 | 0.00 | 76 | 1016.0 |
| 20260507140624 | 63 | 0 | 0.0 | 0.0 | 0.00 | 0.00 | 0.00 | 75 | 1016.0 |
| 20260507135620 | 63 | 0 | 0.0 | 0.0 | 0.00 | 0.00 | 0.00 | 76 | 1016.0 |
| 20260507134620 | 63 | 0 | 0.0 | 0.0 | 0.00 | 0.00 | 0.00 | 76 | 1016.0 |
| 20260507133619 | 57 | 0 | 1.7 | 0.0 | 0.00 | 0.00 | 0.00 | 10 | 1016.0 |
| 20260507132618 | 56 | 0 | 0.9 | 0.0 | 0.00 | 0.00 | 0.00 | 10 | 1016.0 |
| 20260507131617 | 56 | 0 | 0.9 | 0.0 | 0.00 | 0.00 | 0.00 | 10 | 1016.0 |
| 20260507130616 | 56 | 0 | 0.9 | 0.0 | 0.00 | 0.00 | 0.00 | 10 | 1016.0 |
| 20260507125616 | 54 | 200 | 2.6 | 0.0 | 0.00 | 0.00 | 0.00 | 10 | 1016.0 |
| 20260507124615 | 54 | 200 | 2.6 | 0.0 | 0.00 | 0.00 | 0.00 | 10 | 1016.0 |
| 20260507123615 | 55 | 200 | 2.6 | 0.0 | 0.00 | 0.00 | 0.00 | 99 | 1016.0 |
| 20260507122614 | 55 | 200 | 2.6 | 0.0 | 0.00 | 0.00 | 0.00 | 98 | 1016.0 |
| 20260507121614 | 55 | 200 | 2.6 | 0.0 | 0.00 | 0.00 | 0.00 | 98 | 1016.0 |
| 20260507120613 | 55 | 200 | 2.6 | 0.0 | 0.00 | 0.00 | 0.00 | 98 | 1016.0 |
| 20260507115613 | 55 | 0 | 0.9 | 0.0 | 0.00 | 0.00 | 0.00 | 98 | 1016.0 |
| 20260507114612 | 55 | 0 | 0.9 | 0.0 | 0.00 | 0.00 | 0.00 | 98 | 1016.0 |
| 20260507113612 | 55 | 0 | 0.9 | 0.0 | 0.00 | 0.00 | 0.00 | 98 | 1016.0 |
| 20260507112611 | 55 | 0 | 0.9 | 0.0 | 0.00 | 0.00 | 0.00 | 98 | 1017.0 |
| 20260507111611 | 55 | 0 | 0.9 | 0.0 | 0.00 | 0.00 | 0.00 | 98 | 1017.0 |
| 20260507110610 | 55 | 0 | 0.9 | 0.0 | 0.00 | 0.00 | 0.00 | 98 | 1017.0 |
| 20260507105610 | 55 | 0 | 1.7 | 0.0 | 0.00 | 0.00 | 0.00 | 98 | 1017.0 |
| 20260507104609 | 55 | 0 | 1.7 | 0.0 | 0.00 | 0.00 | 0.00 | 98 | 1016.0 |
| 20260507103608 | 55 | 0 | 1.7 | 0.0 | 0.00 | 0.00 | 0.00 | 98 | 1016.0 |
| 20260507102608 | 55 | 0 | 1.7 | 0.0 | 0.00 | 0.00 | 0.00 | 98 | 1016.0 |
| 20260507101607 | 55 | 0 | 1.7 | 0.0 | 0.00 | 0.00 | 0.00 | 98 | 1016.0 |
| 20260507100606 | 55 | 0 | 1.7 | 0.0 | 0.00 | 0.00 | 0.00 | 98 | 1016.0 |
| 20260507095605 | 55 | 0 | 1.7 | 0.0 | 0.00 | 0.00 | 0.00 | 98 | 1016.0 |
| 20260507094605 | 55 | 0 | 1.7 | 0.0 | 0.00 | 0.00 | 0.00 | 98 | 1016.0 |
| 20260507093605 | 55 | 0 | 1.7 | 0.0 | 0.00 | 0.00 | 0.00 | 98 | 1016.0 |
| 20260507092604 | 55 | 0 | 1.7 | 0.0 | 0.00 | 0.00 | 0.00 | 98 | 1016.0 |
| 20260507091603 | 55 | 0 | 1.7 | 0.0 | 0.00 | 0.00 | 0.00 | 98 | 1016.0 |
| 20260507090603 | 55 | 0 | 1.7 | 0.0 | 0.00 | 0.00 | 0.00 | 98 | 1016.0 |
| 20260507085601 | 55 | 0 | 1.7 | 0.0 | 0.00 | 0.00 | 0.00 | 98 | 1016.0 |
| 20260507084559 | 55 | 0 | 1.7 | 0.0 | 0.00 | 0.00 | 0.00 | 98 | 1016.0 |
| 20260507083558 | 55 | 0 | 1.7 | 0.0 | 0.00 | 0.00 | 0.00 | 98 | 1016.0 |
| 20260507082558 | 57 | 350 | 2.6 | 0.0 | 0.00 | 0.00 | 0.00 | 98 | 1016.0 |
| 20260507081558 | 57 | 350 | 2.6 | 0.0 | 0.00 | 0.00 | 0.00 | 98 | 1016.0 |
| 20260507080557 | 57 | 350 | 2.6 | 0.0 | 0.00 | 0.00 | 0.00 | 97 | 1016.0 |
| 20260507075556 | 57 | 350 | 2.6 | 0.0 | 0.00 | 0.00 | 0.00 | 97 | 1016.0 |
| 20260507074555 | 57 | 350 | 2.6 | 0.0 | 0.00 | 0.00 | 0.00 | 97 | 1016.0 |
| 20260507073554 | 59 | 350 | 2.6 | 0.0 | 0.00 | 0.00 | 0.00 | 97 | 1016.0 |
| 20260507072554 | 59 | 350 | 2.6 | 0.0 | 0.00 | 0.00 | 0.00 | 96 | 1016.0 |
| 20260507071553 | 59 | 350 | 2.6 | 0.0 | 0.00 | 0.00 | 0.00 | 95 | 1016.0 |
| 20260507070553 | 59 | 350 | 2.6 | 0.0 | 0.00 | 0.00 | 0.00 | 93 | 1016.0 |
| 20260507065550 | 59 | 350 | 1.7 | 0.0 | 0.00 | 0.00 | 0.00 | 91 | 1016.0 |
| 20260507064548 | 59 | 350 | 1.7 | 0.0 | 0.00 | 0.00 | 0.00 | 91 | 1016.0 |
| 20260507063548 | 59 | 350 | 1.7 | 0.0 | 0.00 | 0.00 | 0.00 | 91 | 1016.0 |
| 20260507062546 | 59 | 350 | 1.7 | 0.0 | 0.00 | 0.00 | 0.00 | 91 | 1017.0 |
| 20260507061545 | 59 | 350 | 1.7 | 0.0 | 0.00 | 0.00 | 0.00 | 91 | 1017.0 |
| 20260507060544 | 59 | 350 | 1.7 | 0.0 | 0.00 | 0.00 | 0.00 | 91 | 1017.0 |
| 20260507055543 | 59 | 10 | 1.7 | 0.0 | 0.00 | 0.00 | 0.00 | 91 | 1017.0 |
| 20260507054543 | 59 | 10 | 1.7 | 0.0 | 0.00 | 0.00 | 0.00 | 91 | 1017.0 |
| 20260507053541 | 59 | 10 | 1.7 | 0.0 | 0.00 | 0.00 | 0.00 | 90 | 1017.0 |
| 20260507052539 | 59 | 10 | 1.7 | 0.0 | 0.00 | 0.00 | 0.00 | 90 | 1018.0 |
| 20260507051538 | 59 | 10 | 1.7 | 0.0 | 0.00 | 0.00 | 0.00 | 90 | 1018.0 |
| 20260507050537 | 59 | 10 | 1.7 | 0.0 | 0.00 | 0.00 | 0.00 | 89 | 1018.0 |
| 20260507045537 | 59 | 0 | 1.7 | 0.0 | 0.00 | 0.00 | 0.00 | 89 | 1018.0 |
| 20260507044536 | 59 | 0 | 1.7 | 0.0 | 0.00 | 0.00 | 0.00 | 88 | 1018.0 |
| 20260507043535 | 59 | 0 | 1.7 | 0.0 | 0.00 | 0.00 | 0.00 | 87 | 1018.0 |
| 20260507042533 | 59 | 0 | 1.7 | 0.0 | 0.00 | 0.00 | 0.00 | 86 | 1018.0 |
| 20260507041527 | 59 | 0 | 1.7 | 0.0 | 0.00 | 0.00 | 0.00 | 85 | 1018.0 |
| 20260507040527 | 59 | 0 | 1.7 | 0.0 | 0.00 | 0.00 | 0.00 | 83 | 1018.0 |
| 20260507035525 | 59 | 0 | 0.9 | 0.0 | 0.00 | 0.00 | 0.00 | 81 | 1018.0 |
| 20260507034524 | 59 | 0 | 0.9 | 0.0 | 0.00 | 0.00 | 0.00 | 81 | 1018.0 |
| 20260507033517 | 59 | 0 | 0.9 | 0.0 | 0.00 | 0.00 | 0.00 | 82 | 1018.0 |
| 20260507032516 | 59 | 0 | 0.9 | 0.0 | 0.00 | 0.00 | 0.00 | 82 | 1017.0 |
| 20260507031516 | 59 | 0 | 0.9 | 0.0 | 0.00 | 0.00 | 0.00 | 82 | 1017.0 |
| 20260507030515 | 59 | 0 | 0.9 | 0.0 | 0.00 | 0.00 | 0.00 | 82 | 1017.0 |
| 20260507025515 | 59 | 0 | 1.7 | 0.0 | 0.00 | 0.00 | 0.00 | 83 | 1017.0 |
| 20260507024514 | 59 | 0 | 1.7 | 0.0 | 0.00 | 0.00 | 0.00 | 83 | 1017.0 |
| 20260507023513 | 61 | 350 | 2.6 | 0.0 | 0.00 | 0.00 | 0.00 | 82 | 1017.0 |
| 20260507022513 | 61 | 350 | 2.6 | 0.0 | 0.00 | 0.00 | 0.00 | 81 | 1017.0 |
| 20260507021512 | 61 | 350 | 2.6 | 0.0 | 0.00 | 0.00 | 0.00 | 79 | 1017.0 |
| 20260507020512 | 61 | 350 | 2.6 | 0.0 | 0.00 | 0.00 | 0.00 | 77 | 1017.0 |
| 20260507015511 | 61 | 350 | 2.6 | 0.0 | 0.00 | 0.00 | 0.00 | 75 | 1017.0 |
| 20260507014511 | 61 | 350 | 2.6 | 0.0 | 0.00 | 0.00 | 0.00 | 73 | 1017.0 |
| 20260507013506 | 61 | 350 | 2.6 | 0.0 | 0.00 | 0.00 | 0.00 | 71 | 1017.0 |
| 20260507012506 | 61 | 350 | 2.6 | 0.0 | 0.00 | 0.00 | 0.00 | 67 | 1016.0 |
| 20260507011504 | 61 | 350 | 2.6 | 0.0 | 0.00 | 0.00 | 0.00 | 67 | 1016.0 |
| 20260507010504 | 61 | 350 | 2.6 | 0.0 | 0.00 | 0.00 | 0.00 | 63 | 1016.0 |
| 20260507005503 | 61 | 0 | 1.7 | 0.0 | 0.00 | 0.00 | 0.00 | 60 | 1016.0 |
| 20260507004502 | 61 | 0 | 1.7 | 0.0 | 0.00 | 0.00 | 0.00 | 60 | 1016.0 |
| 20260507003500 | 61 | 0 | 1.7 | 0.0 | 0.00 | 0.00 | 0.00 | 60 | 1016.0 |
| 20260507002459 | 62 | 0 | 1.7 | 0.0 | 0.00 | 0.00 | 0.00 | 60 | 1015.0 |
| 20260507001457 | 62 | 0 | 1.7 | 0.0 | 0.00 | 0.00 | 0.00 | 60 | 1015.0 |
| 20260507000456 | 62 | 0 | 1.7 | 0.0 | 0.00 | 0.00 | 0.00 | 60 | 1015.0 |
| 20260506235454 | 65 | 0 | 0.9 | 0.0 | 0.00 | 0.00 | 0.00 | 51 | 1015.0 |
| 20260506234453 | 65 | 0 | 0.9 | 0.0 | 0.00 | 0.00 | 0.00 | 51 | 1014.0 |
| 20260506233451 | 65 | 0 | 0.9 | 0.0 | 0.00 | 0.00 | 0.00 | 51 | 1014.0 |
| 20260506232450 | 65 | 0 | 0.9 | 0.0 | 0.00 | 0.00 | 0.00 | 51 | 1013.0 |
| 20260506231449 | 65 | 0 | 0.9 | 0.0 | 0.00 | 0.00 | 0.00 | 51 | 1013.0 |
| 20260506230448 | 66 | 0 | 2.6 | 0.0 | 0.00 | 0.00 | 0.00 | 48 | 1013.0 |
| 20260506225447 | 67 | 0 | 2.6 | 0.0 | 0.00 | 0.00 | 0.00 | 48 | 1013.0 |
| 20260506224446 | 69 | 0 | 2.6 | 0.0 | 0.00 | 0.00 | 0.00 | 49 | 1013.0 |
| 20260506223446 | 68 | 0 | 2.6 | 0.0 | 0.00 | 0.00 | 0.00 | 47 | 1013.0 |
| 20260506222446 | 68 | 0 | 2.6 | 0.0 | 0.00 | 0.00 | 0.00 | 47 | 1011.0 |
| 20260506221445 | 67 | 76 | 2.6 | 5.2 | 0.00 | 0.00 | 0.00 | 46 | 1011.0 |
| 20260506220444 | 71 | 130 | 4.3 | 0.0 | 0.00 | 0.00 | 0.00 | 44 | 1011.0 |
| 20260506215443 | 71 | 130 | 4.3 | 0.0 | 0.00 | 0.00 | 0.00 | 44 | 1011.0 |
| 20260506214442 | 71 | 130 | 4.3 | 0.0 | 0.00 | 0.00 | 0.00 | 44 | 1011.0 |
| 20260506213442 | 73 | 360 | 9.6 | 0.0 | 0.00 | 0.00 | 0.00 | 45 | 1011.0 |
| 20260506212440 | 73 | 360 | 9.6 | 0.0 | 0.00 | 0.00 | 0.00 | 45 | 1010.0 |
| 20260506211440 | 73 | 360 | 9.6 | 0.0 | 0.00 | 0.00 | 0.00 | 45 | 1010.0 |
| 20260506210439 | 73 | 360 | 9.6 | 0.0 | 0.00 | 0.00 | 0.00 | 45 | 1010.0 |
| 20260506205438 | 73 | 360 | 9.6 | 0.0 | 0.00 | 0.00 | 0.00 | 45 | 1010.0 |
| 20260506204438 | 73 | 360 | 9.6 | 0.0 | 0.00 | 0.00 | 0.00 | 46 | 1010.0 |
| 20260506203437 | 72 | 360 | 9.6 | 0.0 | 0.00 | 0.00 | 0.00 | 48 | 1010.0 |
| 20260506202435 | 72 | 360 | 9.6 | 0.0 | 0.00 | 0.00 | 0.00 | 49 | 1010.0 |
| 20260506201432 | 72 | 360 | 9.6 | 0.0 | 0.00 | 0.00 | 0.00 | 52 | 1010.0 |
| 20260506200432 | 71 | 0 | 5.2 | 0.0 | 0.00 | 0.00 | 0.00 | 55 | 1010.0 |
| 20260506195431 | 71 | 0 | 5.2 | 0.0 | 0.00 | 0.00 | 0.00 | 55 | 1010.0 |
| 20260506194431 | 71 | 0 | 5.2 | 0.0 | 0.00 | 0.00 | 0.00 | 55 | 1010.0 |
| 20260506193428 | 71 | 0 | 5.2 | 0.0 | 0.00 | 0.00 | 0.00 | 55 | 1010.0 |
| 20260506192428 | 71 | 0 | 5.2 | 0.0 | 0.00 | 0.00 | 0.00 | 55 | 1011.0 |